STARLINK-32408, 62054

Orbit data source: Space-Track

STARLINK-32408, 62054 is a payload satellite owned by SpaceX/Seattle (US) in LEO that was launched on Thu, 21 Nov 2024 UTC via an FALCON 9 launch vehicle from the Air Force Eastern Test Range (AFETR). Payload-class satellites include a variety of spacecraft equipped with specific instruments for various scientific and technological missions. These include communications satellites like Starlink; space stations such as the ISS; scientific satellites like the Hubble; Earth observation satellites from companies like Planet Labs, Umbra, and HawkEye 360; GPS; miniature CubeSats for education and research; and military/defense satellites.

Loading next visibility...
Identifier
62054, 2024-216Y
Orbit
LEO
Last TLE update
12 hours ago
Origin
Manufacturer
SpaceX/Seattle
Mission
Operational Commercial Communications
Bus & Motor
STARLINK V2M, Unknown motor
Mass
730 kg wet, ~700 kg dry
Launch date (UTC)
2024-11-21 (7 months ago)
Launch vehicle
FALCON 9
Launch site
Air Force Eastern Test Range (AFETR)
Object type
Payload
Rocket body
Debris
Shape & HBR
Box + 2 Pan, 29 m
Radar Cross Section
36.964 m², Large (>1 m²)

Expand to show TLE details & history

TLE from 12 hours ago
0 STARLINK-32408
1 62054U 24216Y   25182.58335648 -.01594007  00000-0 -53270-1 0  9998
2 62054  42.9998 234.5190 0001790 258.5458  19.0411 15.33279912  5955
Epoch: 2025-07-01T14:00Z
TLE epoch observation values (Epoch: 2025-07-01T14:00:01.999Z)
Latitude
-42.69304°
Longitude
24.94497°
Altitude
478.029 km
Speed
7.628 km/s
True Right ascension
10h 19m 19s
True Declination
-42° 30' 53"
Sunlit
Object was in daylight at epoch
Visualization orbit readout
Latitude
13.3482°
Longitude
-92.87073°
Altitude
470.49 km
Speed
7.634 km/s
Apparent Right ascension
02h 08m 16s
Apparent Declination
-12° 15' 24"
Sunlit
Object is in daylight
Visualization observer readout
Local Sidereal Time
13:41:19
Azimuth
346.002° N
Elevation
-61.708°
Doppler factor
1
Orbital elements
Apogee altitude
469.21 km
Perigee altitude
466.759 km
Semi-major axis
6,846.121 km
Eccentricity
0.00018
Inclination
42.9998°
RAAN
234.519°
Arg. of periapsis
258.5458°
True anomaly
Unknown
Mean anomaly
19.0411°
Eccentric anomaly
Unknown
Mean motion
3.83157 °/min
Orbital period
93.96 mins
BSTAR
-0.05327
Loading maneuver chart data...
Loading SW <> Apogee altitude chart data...
Loading historical data...
Loading historical data...
Loading historical data...
Loading historical data...
Loading historical data...
Loading historical data...
Loading historical data...

STARLINK-32408 Visibility forecast

Observer location: undefined°, undefined°

Span
Click to sort rows by Start time (UTC) header in descending order
Start Az.
Max El. time (UTC)
Max El. Az.
Max El.
End time (UTC)
End Az.
5 mins2025-07-02 06:11:18.754Z195.909° SSW2025-07-02 06:14:18.754Z138.677° SSE20.41°2025-07-02 06:16:18.754Z100.444° ESE
5 mins2025-07-02 07:50:18.754Z250.581° W2025-07-02 07:52:18.754Z246.639° WSW44.74°2025-07-02 07:55:18.754Z71.951° E
5 mins2025-07-02 09:29:18.754Z291.057° WNW2025-07-02 09:31:18.754Z354.119° N37.815°2025-07-02 09:34:18.754Z73.2° E
5 mins2025-07-02 11:08:18.754Z291.114° WNW2025-07-02 11:10:18.754Z1.579° NNE44.632°2025-07-02 11:13:18.754Z103.998° ESE
4 mins2025-07-02 12:47:18.754Z251.875° W2025-07-02 12:49:18.754Z200.609° SSW23.533°2025-07-02 12:51:18.754Z161.51° S
|